CRL942 LFPO-TFFR

Flight info

Callsign CRL942
Flight time N/A
Altitude 30000
Route LGL UN491 OTOFE DCT ALUTA DCT TAKAS/M084F300 DCT TAMEL DCT 45N020W 39N030W 32N040W 26N050W DCT BNJEE/N0507F300 DCT BOSET BOSET2Z
Aircraft A339/H-SADE1E2E3GHIJ1J3J5M1P2RWXY/LB2D1

Departure

Time N/A
Airport Paris-Orly Airport (LFPO)

Arrival

Time 2026-04-16 06:08
Airport Maryse Condé International Airport (TFFR)
Time Latitude Longitude Altitude Speed Heading
2026-04-16 05:48 16.94338 -61.03544 28021 ft 426 kts 231°
2026-04-16 05:48 16.92412 -61.05886 27372 ft 423 kts 231°
2026-04-16 05:48 16.90502 -61.08208 26734 ft 420 kts 231°
2026-04-16 05:49 16.88603 -61.10516 26061 ft 419 kts 231°
2026-04-16 05:49 16.86708 -61.12816 25464 ft 416 kts 231°
2026-04-16 05:49 16.84823 -61.15105 24796 ft 415 kts 231°
2026-04-16 05:49 16.82945 -61.17385 24152 ft 414 kts 230°
2026-04-16 05:50 16.81075 -61.19655 23497 ft 413 kts 230°
2026-04-16 05:50 16.79211 -61.21914 22849 ft 409 kts 230°
2026-04-16 05:50 16.77363 -61.24154 22234 ft 405 kts 230°
2026-04-16 05:50 16.75529 -61.26376 21335 ft 406 kts 230°
2026-04-16 05:51 16.73668 -61.28631 20361 ft 412 kts 230°
2026-04-16 05:51 16.71802 -61.30892 19658 ft 410 kts 230°
2026-04-16 05:51 16.69969 -61.33111 19014 ft 406 kts 230°
2026-04-16 05:51 16.68131 -61.35335 18297 ft 405 kts 230°
2026-04-16 05:52 16.66298 -61.37553 17543 ft 401 kts 230°
2026-04-16 05:52 16.64488 -61.39742 16815 ft 397 kts 230°
2026-04-16 05:52 16.62701 -61.41902 16264 ft 389 kts 230°
2026-04-16 05:52 16.60949 -61.44020 15676 ft 382 kts 230°
2026-04-16 05:53 16.59225 -61.46104 15118 ft 375 kts 230°
2026-04-16 05:53 16.57525 -61.48158 14547 ft 370 kts 230°
2026-04-16 05:53 16.55855 -61.50175 13949 ft 366 kts 230°
2026-04-16 05:53 16.54227 -61.52141 13413 ft 359 kts 230°
2026-04-16 05:54 16.52610 -61.54093 12887 ft 352 kts 230°
2026-04-16 05:54 16.51020 -61.56013 12349 ft 346 kts 230°
2026-04-16 05:54 16.49460 -61.57897 11845 ft 340 kts 229°
2026-04-16 05:54 16.48100 -61.59884 11324 ft 335 kts 240°
2026-04-16 05:55 16.47210 -61.62101 10826 ft 330 kts 253°
2026-04-16 05:55 16.46779 -61.64430 10384 ft 324 kts 261°
2026-04-16 05:55 16.46465 -61.66703 10219 ft 308 kts 260°
2026-04-16 05:55 16.46142 -61.68859 9912 ft 298 kts 259°
2026-04-16 05:56 16.45814 -61.70970 9522 ft 291 kts 259°
2026-04-16 05:56 16.45491 -61.73020 9385 ft 293 kts 259°
2026-04-16 05:56 16.45157 -61.75123 9256 ft 294 kts 259°
2026-04-16 05:56 16.44824 -61.77225 9134 ft 293 kts 259°
2026-04-16 05:57 16.44496 -61.79322 8865 ft 294 kts 259°
2026-04-16 05:57 16.44168 -61.81418 8463 ft 292 kts 259°
2026-04-16 05:57 16.43846 -61.83488 8069 ft 286 kts 258°
2026-04-16 05:57 16.43530 -61.85517 7687 ft 281 kts 259°
2026-04-16 05:58 16.43213 -61.87515 7207 ft 278 kts 258°
2026-04-16 05:58 16.42907 -61.89466 6907 ft 269 kts 259°
2026-04-16 05:58 16.42491 -61.91346 6542 ft 265 kts 244°
2026-04-16 05:58 16.41433 -61.92871 6255 ft 258 kts 218°
2026-04-16 05:59 16.39883 -61.93734 5761 ft 251 kts 190°
2026-04-16 05:59 16.38182 -61.93774 5290 ft 241 kts 167°
2026-04-16 05:59 16.36561 -61.93486 4951 ft 233 kts 167°
2026-04-16 05:59 16.35023 -61.93031 4466 ft 228 kts 148°
2026-04-16 06:00 16.33892 -61.91976 4067 ft 220 kts 122°
2026-04-16 06:00 16.33355 -61.90517 3733 ft 211 kts 98°
2026-04-16 06:00 16.33143 -61.89026 3592 ft 210 kts 99°
2026-04-16 06:00 16.32907 -61.87585 3563 ft 197 kts 100°
2026-04-16 06:01 16.32664 -61.86216 3578 ft 194 kts 101°
2026-04-16 06:01 16.32380 -61.84839 3572 ft 194 kts 102°
2026-04-16 06:01 16.32115 -61.83466 3573 ft 194 kts 101°
2026-04-16 06:01 16.31863 -61.82091 3577 ft 192 kts 101°
2026-04-16 06:02 16.31359 -61.79364 3579 ft 190 kts 101°
2026-04-16 06:02 16.31106 -61.78005 3578 ft 192 kts 100°
2026-04-16 06:02 16.30853 -61.76626 3587 ft 196 kts 100°
2026-04-16 06:03 16.30597 -61.75234 3585 ft 196 kts 101°
2026-04-16 06:03 16.30344 -61.73859 3572 ft 193 kts 101°
2026-04-16 06:03 16.30090 -61.72480 3553 ft 196 kts 101°
2026-04-16 06:03 16.29834 -61.71104 3342 ft 192 kts 101°
2026-04-16 06:04 16.29590 -61.69773 3067 ft 181 kts 101°
2026-04-16 06:04 16.29353 -61.68487 2825 ft 183 kts 100°
2026-04-16 06:04 16.29116 -61.67201 2567 ft 178 kts 101°
2026-04-16 06:04 16.28881 -61.65930 2325 ft 179 kts 100°
2026-04-16 06:05 16.28648 -61.64677 2077 ft 173 kts 99°
2026-04-16 06:05 16.28430 -61.63489 1848 ft 162 kts 98°
2026-04-16 06:05 16.28232 -61.62387 1638 ft 147 kts 101°
2026-04-16 06:05 16.28042 -61.61387 1435 ft 143 kts 101°
2026-04-16 06:06 16.27856 -61.60361 1249 ft 142 kts 101°
2026-04-16 06:06 16.27673 -61.59393 1031 ft 134 kts 99°
2026-04-16 06:06 16.27506 -61.58414 866 ft 144 kts 99°
2026-04-16 06:06 16.27315 -61.57358 641 ft 152 kts 101°
2026-04-16 06:07 16.27095 -61.56269 395 ft 155 kts 101°
2026-04-16 06:07 16.26899 -61.55179 173 ft 153 kts 99°
2026-04-16 06:07 16.26702 -61.54111 27 ft 145 kts 99°
2026-04-16 06:07 16.26564 -61.53369 29 ft 65 kts 101°
2026-04-16 06:08 16.26483 -61.52929 25 ft 58 kts 100°
2026-04-16 06:08 16.26434 -61.52660 27 ft 26 kts 101°
2026-04-16 06:08 16.26403 -61.52485 27 ft 23 kts 98°
2026-04-16 06:08 16.26377 -61.52336 32 ft 19 kts 102°
2026-04-16 06:09 16.26382 -61.52252 32 ft 10 kts 57°
2026-04-16 06:09 16.26448 -61.52227 32 ft 11 kts 11°
2026-04-16 06:09 16.26531 -61.52210 28 ft 15 kts 11°
2026-04-16 06:09 16.26634 -61.52189 27 ft 14 kts 11°
2026-04-16 06:10 16.26709 -61.52199 27 ft 11 kts 326°
2026-04-16 06:10 16.26736 -61.52270 26 ft 11 kts 282°
2026-04-16 06:10 16.26752 -61.52355 27 ft 12 kts 281°
2026-04-16 06:10 16.26769 -61.52446 27 ft 13 kts 281°
2026-04-16 06:11 16.26784 -61.52525 27 ft 6 kts 281°
2026-04-16 06:11 16.26792 -61.52572 27 ft 7 kts 281°
2026-04-16 06:11 16.26824 -61.52601 27 ft 6 kts 340°
2026-04-16 06:11 16.26860 -61.52608 27 ft 1 kts 349°
2026-04-16 06:12 16.26875 -61.52611 27 ft 3 kts 349°
2026-04-16 06:12 16.26892 -61.52614 27 ft 2 kts 350°
2026-04-16 06:12 16.26899 -61.52615 27 ft 0 kts 350°